McGrath, AK

5:52 PM AKDT on April 28, 2017 (GMT -0800)
McGrath

Weather History for PAMC - February, 2014

Change the Weather History Date:

Sunday, February 2, 2014

  Actual Average Record
Temperature  
Mean Temperature 19 °F -3 °F  
Max Temperature 28 °F 6 °F 46 °F (2007)
Min Temperature 9 °F -13 °F -63 °F (1947)
Degree Days  
Heating Degree Days 46 68  
Month to date heating degree days 85 137  
Since 1 July heating degree days 7165 8590  
Cooling Degree Days 0 0  
Month to date cooling degree days 0 0  
Year to date cooling degree days 0 0  
Moisture  
Dew Point 16 °F    
Average Humidity 84    
Maximum Humidity 92    
Minimum Humidity 73    
Precipitation  
Precipitation 0.00 in 0.04 in 0.39 in (2000)
Month to date precipitation T 0.07  
Year to date precipitation 1.60 1.16  
Snow  
Snow 0.00 in 0.50 in 14.70 in (2000)
Month to date snowfall T 1.0  
Since 1 July snowfall 45.2 67.9  
Snow Depth 16.00 in    
Sea Level Pressure  
Sea Level Pressure 30.55 in    
Wind  
Wind Speed 4 mph (NNE)    
Max Wind Speed 12 mph    
Max Gust Speed 14 mph    
Visibility 10 miles    
Events      
T = Trace of Precipitation, MM = Missing Value Source: NWS Daily Summary

Daily Weather History Graph

Daily Weather History Graph

Search for Another Location

Airport or City:

Trip Planner

Search our weather history database for the weather conditions in past years. The results will help you decide how hot, cold, wet, or windy it might be!

Date:

Astronomy

Feb. 02, 2014 Rise Set
Actual Time 9:50 AM AKST 5:22 PM AKST
Civil Twilight 8:57 AM AKST 6:16 PM AKST
Nautical Twilight 8:01 AM AKST 7:12 PM AKST
Astronomical Twilight 7:08 AM AKST 8:05 PM AKST
Moon 10:01 AM AKST (2/2) 10:53 PM AKST (2/2)
Length of Visible Light 9h 18m
Length of Day
7h 32m
Waxing Crescent, 12% of the Moon is Illuminated
Feb 2
Waxing Crescent
Feb 6
First Quarter
Feb 14
Full
Feb 22
Last Quarter
Feb 28
New

Hourly Weather History & Observations

Time (AKST) Temp. Windchill Dew Point Humidity Pressure Visibility Wind Dir Wind Speed Gust Speed Precip Events Conditions
12:00 AM 28.0 °F 21.7 °F 25.0 °F 88% 30.55 in 10.0 mi North 5.8 mph - N/A   Overcast
12:53 AM 28.0 °F 21.7 °F 25.0 °F 88% 30.59 in 10.0 mi North 5.8 mph - N/A   Overcast
1:06 AM 27.0 °F 19.5 °F 24.1 °F 89% 30.57 in 10.0 mi North 6.9 mph - N/A   Overcast
1:24 AM 27.0 °F 19.5 °F 23.0 °F 85% 30.57 in 10.0 mi North 6.9 mph - N/A   Mostly Cloudy
1:53 AM 27.0 °F 19.5 °F 23.0 °F 85% 30.60 in 10.0 mi NNE 6.9 mph - N/A   Mostly Cloudy
2:53 AM 26.1 °F 20.5 °F 21.9 °F 84% 30.60 in 10.0 mi NNE 4.6 mph - N/A   Mostly Cloudy
3:30 AM 25.0 °F 16.3 °F 21.0 °F 85% 30.57 in 10.0 mi North 8.1 mph - N/A   Scattered Clouds
3:53 AM 24.1 °F - 19.9 °F 84% 30.60 in 10.0 mi Calm Calm - N/A   Clear
4:21 AM 24.1 °F 17.0 °F 19.0 °F 81% 30.58 in 10.0 mi NNE 5.8 mph - N/A   Scattered Clouds
4:53 AM 24.1 °F 17.0 °F 19.9 °F 84% 30.60 in 10.0 mi NNE 5.8 mph - N/A   Scattered Clouds
5:00 AM 24.1 °F 18.2 °F 19.9 °F 84% 30.57 in 10.0 mi North 4.6 mph - N/A   Mostly Cloudy
5:51 AM 24.8 °F 20.5 °F 21.2 °F 86% 30.57 in 10.0 mi North 3.5 mph - N/A   Overcast
5:53 AM 25.0 °F - 21.0 °F 85% 30.59 in 10.0 mi Calm Calm - N/A   Overcast
6:53 AM 19.0 °F 13.9 °F 16.0 °F 88% 30.58 in 10.0 mi SW 3.5 mph - N/A   Overcast
7:53 AM 15.1 °F 9.4 °F 12.0 °F 88% 30.59 in 10.0 mi SSE 3.5 mph - N/A   Overcast
8:53 AM 12.0 °F - 9.0 °F 88% 30.59 in 10.0 mi Calm Calm - N/A   Clear
9:06 AM 12.9 °F - 9.0 °F 84% 30.56 in 10.0 mi Calm Calm - N/A   Scattered Clouds
9:51 AM 12.2 °F 4.3 °F 8.6 °F 85% 30.55 in 10.0 mi Variable 4.6 mph - N/A   Mostly Cloudy
9:53 AM 12.0 °F 4.1 °F 9.0 °F 88% 30.58 in 10.0 mi NNW 4.6 mph - N/A   Mostly Cloudy
10:29 AM 12.0 °F 5.9 °F 9.0 °F 88% 30.55 in 10.0 mi West 3.5 mph - N/A   Mostly Cloudy
10:53 AM 10.9 °F 4.7 °F 9.0 °F 92% 30.58 in 10.0 mi West 3.5 mph - N/A   Mostly Cloudy
11:53 AM 14.0 °F 8.2 °F 10.9 °F 88% 30.57 in 10.0 mi SSE 3.5 mph - N/A   Scattered Clouds
12:51 PM 17.6 °F 10.7 °F 12.2 °F 79% 30.54 in 10.0 mi SE 4.6 mph - N/A   Mostly Cloudy
12:53 PM 17.1 °F 10.0 °F 12.9 °F 84% 30.57 in 10.0 mi SE 4.6 mph - N/A   Mostly Cloudy
1:53 PM 18.0 °F 11.1 °F 15.1 °F 88% 30.55 in 10.0 mi SSE 4.6 mph - N/A   Mostly Cloudy
2:53 PM 18.0 °F 11.1 °F 14.0 °F 84% 30.54 in 10.0 mi ESE 4.6 mph - N/A   Overcast
3:53 PM 18.0 °F 11.1 °F 14.0 °F 84% 30.53 in 10.0 mi ESE 4.6 mph - N/A   Overcast
4:44 PM 18.0 °F - 12.9 °F 81% 30.49 in 10.0 mi Calm Calm - N/A   Overcast
4:53 PM 18.0 °F 12.7 °F 14.0 °F 84% 30.52 in 10.0 mi SSE 3.5 mph - N/A   Overcast
5:08 PM 18.0 °F 12.7 °F 14.0 °F 84% 30.49 in 10.0 mi SSE 3.5 mph - N/A   Overcast
5:53 PM 19.0 °F - 14.0 °F 81% 30.51 in 10.0 mi Calm Calm - N/A   Overcast
6:53 PM 19.0 °F 13.9 °F 14.0 °F 81% 30.49 in 10.0 mi WNW 3.5 mph - N/A   Overcast
7:53 PM 19.0 °F 12.3 °F 15.1 °F 85% 30.49 in 10.0 mi South 4.6 mph - N/A   Overcast
8:53 PM 19.9 °F - 15.1 °F 81% 30.49 in 10.0 mi Calm Calm - N/A   Overcast
9:53 PM 19.9 °F 14.9 °F 16.0 °F 85% 30.48 in 10.0 mi NW 3.5 mph - N/A   Overcast
10:53 PM 21.9 °F 11.7 °F 16.0 °F 78% 30.48 in 10.0 mi NNE 9.2 mph - N/A   Overcast
11:53 PM 21.0 °F 12.4 °F 15.1 °F 78% 30.47 in 10.0 mi NNE 6.9 mph - N/A   Overcast